Ord, NE

5:28 AM CST on February 18, 2018 (GMT -0600)
Sharp

Weather History for KODX - January, 2013

Change the Weather History Date:

Saturday, January 26, 2013

  Actual Average Record
Temperature  
Mean Temperature 37 °F 25 °F  
Max Temperature 55 °F 38 °F 73 °F (2002)
Min Temperature 19 °F 13 °F -11 °F (2009)
Degree Days  
Heating Degree Days 28 40  
Month to date heating degree days 1030 1053  
Since 1 July heating degree days 3759 3777  
Cooling Degree Days 0 0  
Month to date cooling degree days 0 0  
Year to date cooling degree days 0 0  
Moisture  
Dew Point 23 °F    
Average Humidity 61    
Maximum Humidity 92    
Minimum Humidity 30    
Precipitation  
Precipitation 0.00 in 0.02 in 0.48 in (1944)
Month to date precipitation 0.02 0.30  
Year to date precipitation 0.02 0.30  
Sea Level Pressure  
Sea Level Pressure 30.05 in    
Wind  
Wind Speed 10 mph (SSE)    
Max Wind Speed 26 mph    
Max Gust Speed 33 mph    
Visibility 10 miles    
Events      
T = Trace of Precipitation, MM = Missing Value Source: NWS Daily Summary

Daily Weather History Graph

Daily Weather History Graph

Search for Another Location

Airport or City:

Trip Planner

Search our weather history database for the weather conditions in past years. The results will help you decide how hot, cold, wet, or windy it might be!

Date:

Astronomy

Jan. 26, 2013 Rise Set
Actual Time 7:52 AM CST 5:44 PM CST
Civil Twilight 7:23 AM CST 6:14 PM CST
Nautical Twilight 6:49 AM CST 6:47 PM CST
Astronomical Twilight 6:16 AM CST 7:20 PM CST
Moon 5:41 PM CST (1/26) 7:11 AM CST (1/26)
Length of Visible Light 10h 50m
Length of Day
9h 51m
Full, 100% of the Moon is Illuminated
Jan 26
Full
Jan 26
Full
Feb 3
Last Quarter
Feb 10
New
Feb 17
First Quarter

Hourly Weather History & Observations

Time (CST) Temp. Windchill Dew Point Humidity Pressure Visibility Wind Dir Wind Speed Gust Speed Precip Events Conditions
12:53 AM 23.0 °F 18.4 °F 17.1 °F 78% 30.18 in 10.0 mi SE 3.5 mph - N/A   Clear
1:53 AM 26.1 °F 19.4 °F 21.0 °F 81% 30.17 in 10.0 mi SE 5.8 mph - N/A   Clear
2:53 AM 24.1 °F 18.2 °F 19.9 °F 84% 30.15 in 10.0 mi SSE 4.6 mph - N/A   Clear
3:53 AM 25.0 °F 16.3 °F 21.0 °F 85% 30.14 in 10.0 mi SSE 8.1 mph - N/A   Clear
4:53 AM 24.1 °F 17.0 °F 21.0 °F 88% 30.13 in 10.0 mi SE 5.8 mph - N/A   Clear
5:53 AM 21.9 °F 17.2 °F 19.9 °F 92% 30.14 in 10.0 mi SE 3.5 mph - N/A   Clear
6:53 AM 21.9 °F - 19.0 °F 89% 30.15 in 10.0 mi Calm Calm - N/A   Clear
7:53 AM 19.9 °F 14.9 °F 18.0 °F 92% 30.16 in 8.0 mi East 3.5 mph - N/A   Scattered Clouds
8:53 AM 25.0 °F 20.7 °F 21.0 °F 85% 30.15 in 10.0 mi ESE 3.5 mph - N/A   Overcast
9:53 AM 30.9 °F - 25.0 °F 79% 30.14 in 10.0 mi Calm Calm - N/A   Overcast
10:53 AM 43.0 °F 35.1 °F 27.0 °F 53% 30.11 in 10.0 mi South 17.3 mph 21.9 mph N/A   Overcast
11:53 AM 52.0 °F - 26.1 °F 37% 30.06 in 10.0 mi SSW 24.2 mph 32.2 mph N/A   Overcast
12:53 PM 54.0 °F - 24.1 °F 31% 30.02 in 10.0 mi South 27.6 mph 32.2 mph N/A   Clear
1:53 PM 55.0 °F - 24.1 °F 30% 29.98 in 10.0 mi SSW 24.2 mph 33.4 mph N/A   Clear
2:53 PM 55.0 °F - 25.0 °F 31% 29.96 in 10.0 mi South 19.6 mph 28.8 mph N/A   Clear
3:53 PM 53.1 °F - 25.0 °F 34% 29.96 in 10.0 mi South 21.9 mph 31.1 mph N/A   Clear
4:53 PM 52.0 °F - 25.0 °F 35% 29.96 in 10.0 mi South 17.3 mph 27.6 mph N/A   Clear
5:53 PM 46.9 °F - 24.1 °F 41% 29.96 in 10.0 mi SSE 6.9 mph - N/A   Clear
6:53 PM 44.1 °F 40.1 °F 24.1 °F 45% 29.97 in 10.0 mi SE 6.9 mph - N/A   Clear
7:53 PM 39.0 °F 34.0 °F 23.0 °F 53% 29.98 in 10.0 mi ESE 6.9 mph - N/A   Clear
8:53 PM 37.9 °F 33.5 °F 23.0 °F 55% 29.96 in 10.0 mi ESE 5.8 mph - N/A   Clear
9:53 PM 37.0 °F 33.3 °F 24.1 °F 59% 29.94 in 10.0 mi ESE 4.6 mph - N/A   Clear
10:53 PM 39.0 °F 35.7 °F 27.0 °F 62% 29.91 in 10.0 mi SE 4.6 mph - N/A   Clear
11:53 PM 39.0 °F 34.8 °F 28.0 °F 65% 29.89 in 10.0 mi SE 5.8 mph - N/A   Clear